Wind_Speed
103 114 125 128 131 135 137 136 141 141 145 133 131 133 135 135 128 125 124 121 119 117 117 115 115 114 110 103 98 94 94 95 93 93 91 88 85 83 80 77 75 74 73 73
89 101 114 124 130 133 135 132 136 136 139 136 131 133 131 130 133 136 136 129 124 120 118 116 117 116 114 111 107 103 102 102 101 99 98 93 88 86 84 83 80 79 80 79
82 94 101 111 116 125 129 130 132 132 132 131 128 127 129 132 133 130 131 136 137 129 124 121 120 118 116 114 112 110 104 103 104 103 103 100 96 92 92 88 87 88 87 86
68 87 95 96 110 116 124 127 128 130 132 131 129 125 129 129 128 132 134 133 134 139 139 132 128 125 119 118 116 114 111 110 110 108 106 104 102 99 96 92 92 92 90 90
60 74 78 87 95 108 116 119 127 126 126 128 130 127 126 124 132 129 130 133 136 139 138 140 138 134 130 122 120 117 115 114 113 111 110 109 109 107 102 100 99 100 99 97
55 63 69 65 84 100 106 106 114 120 124 128 128 125 123 131 123 121 125 127 133 137 137 137 137 137 135 126 121 118 120 117 118 119 117 116 113 110 107 106 105 104 103 100
50 53 56 63 76 87 93 91 107 115 113 115 118 120 120 121 119 121 123 125 129 132 135 138 139 139 137 134 131 127 122 120 118 120 121 121 120 115 113 112 110 109 106 104
43 44 42 58 73 79 81 82 95 106 107 109 112 113 114 116 117 117 116 116 121 125 125 135 139 139 137 135 136 135 134 131 125 120 121 122 121 119 116 113 112 112 111 108
41 38 40 52 66 73 72 73 86 93 100 105 105 106 110 109 113 116 115 115 114 115 118 121 132 137 135 136 136 138 137 136 136 133 128 124 120 118 117 114 114 114 114 112
33 43 42 54 56 61 68 69 75 83 87 95 97 100 102 103 104 109 112 113 109 109 111 115 118 123 131 137 138 135 135 139 140 139 136 135 132 129 126 121 120 119 118 117
37 42 38 49 53 54 59 64 69 77 78 80 85 88 94 97 97 100 100 100 104 104 104 107 116 116 120 127 135 139 140 140 139 139 139 140 137 134 130 128 127 124 123 122
38 38 38 49 53 51 50 54 62 67 67 70 74 73 80 82 86 89 95 93 92 91 97 104 112 112 116 120 123 130 135 138 140 141 141 141 141 138 135 131 130 128 125 125
38 36 42 47 53 50 46 47 51 56 57 62 66 63 68 69 70 75 83 86 85 89 96 96 97 103 110 114 117 122 124 125 130 135 138 138 140 140 138 135 134 133 132 129
38 39 41 45 48 42 39 41 46 50 53 53 56 57 57 59 62 66 70 79 83 83 86 91 93 94 101 105 109 113 116 117 119 122 124 129 134 138 139 137 135 134 132 131
36 38 39 41 40 39 36 36 40 44 46 47 48 50 51 53 53 59 64 72 77 77 80 86 88 89 96 97 102 104 107 109 112 116 120 122 127 129 132 134 134 134 133 132
35 35 34 36 36 34 35 33 35 38 41 42 44 43 45 46 48 51 56 62 66 69 74 76 80 87 90 90 93 95 100 103 108 110 113 117 118 117 118 123 126 127 128 128
33 31 28 30 33 32 31 29 29 33 35 36 35 35 38 43 45 48 50 52 56 61 66 69 75 79 81 85 86 88 91 96 101 102 105 109 113 112 111 113 115 116 119 121
32 31 27 27 30 31 28 24 25 28 29 28 29 29 32 35 40 41 42 44 48 51 57 63 68 72 76 81 82 85 86 88 91 94 97 100 103 105 105 105 108 111 114 115
31 29 27 28 27 26 26 24 24 23 23 25 25 28 31 32 29 28 33 38 41 47 53 58 62 66 69 70 72 74 79 81 83 86 87 88 90 91 95 97 93 92 97 101
30 29 26 26 26 24 26 26 24 23 22 23 26 29 32 32 22 21 23 27 37 43 44 46 50 53 53 53 55 62 68 71 76 81 78 79 81 83 81 82 82 64 85 92
30 30 27 26 26 26 28 26 24 27 26 26 28 31 29 29 21 15 19 22 26 32 34 38 43 46 48 47 53 58 58 63 65 65 62 53 64 70 76 80 82 86 82 75
30 29 29 26 27 26 28 26 26 32 29 31 30 27 25 25 23 12 11 15 17 24 27 32 37 41 45 51 53 55 57 57 52 42 45 59 58 62 64 64 73 65 64 75
29 28 29 29 27 27 27 30 26 32 32 36 35 31 31 30 25 14 11 11 13 15 21 26 31 38 40 47 51 57 61 66 63 57 66 58 53 53 55 61 66 64 72 86
31 29 29 30 29 29 28 30 28 33 27 37 37 36 33 29 28 20 14 16 17 20 24 27 32 38 45 49 51 55 53 56 58 52 51 55 54 55 69 77 77 77 83 82
31 30 31 30 30 29 29 30 35 37 34 33 40 39 37 34 31 28 24 25 29 33 36 36 39 42 45 50 56 56 54 60 61 61 60 63 69 72 73 79 86 91 91 92
32 30 31 32 32 32 31 31 32 36 37 39 36 41 41 39 39 36 36 34 35 41 44 43 47 49 56 59 60 60 62 63 73 72 71 71 78 80 78 83 85 84 89 91
32 30 31 33 33 34 34 32 34 35 40 41 41 45 41 44 44 41 45 47 48 48 50 48 46 49 56 63 65 67 70 71 76 78 79 80 82 82 81 82 83 82 85 85
Wind_Direction
231 230 233 233 235 237 238 238 240 241 243 242 241 240 240 239 239 241 242 244 246 247 249 250 253 256 254 252 253 255 257 258 258 258 258 263 264 264 266 267 270 273 276 279
234 233 232 232 235 236 238 238 241 241 242 242 241 242 240 241 241 240 240 241 242 243 245 249 252 253 255 257 255 254 256 258 260 259 260 261 263 264 265 266 269 270 272 277
232 235 235 235 236 237 239 240 241 242 242 244 243 242 242 241 241 242 240 241 242 242 243 244 247 250 251 253 256 257 256 257 259 258 259 261 263 264 265 266 267 268 270 273
238 238 236 236 238 238 239 240 241 242 242 241 242 242 241 242 241 241 242 242 241 241 242 244 247 249 250 251 251 253 256 257 258 259 260 260 262 264 266 267 268 269 271 274
242 244 241 238 239 240 241 240 241 242 243 244 243 241 242 239 240 239 240 240 242 242 241 242 243 246 248 250 251 250 252 254 256 259 261 262 264 266 268 269 270 272 273 276
244 242 241 239 240 241 241 240 243 243 242 242 243 243 241 243 241 239 240 240 241 242 243 242 243 243 244 246 249 250 251 251 253 255 257 258 260 264 266 267 268 269 272 273
252 244 243 239 241 243 242 242 242 244 244 244 245 245 244 244 244 243 241 240 242 243 242 243 243 243 244 245 245 245 247 249 250 252 256 258 260 262 263 265 267 268 269 271
259 253 243 240 242 241 239 239 241 245 246 245 244 245 245 244 245 244 243 241 240 242 242 241 243 244 245 245 246 248 248 250 250 252 255 257 259 261 262 264 266 266 268 269
273 264 249 242 244 246 246 239 239 240 244 246 245 245 245 242 243 244 243 241 239 239 241 241 241 241 243 245 245 246 248 250 252 253 253 255 257 259 261 263 263 265 266 268
286 273 256 248 246 245 249 249 245 244 241 244 245 245 245 245 243 245 245 245 245 241 238 240 242 241 242 243 245 246 247 249 251 253 254 255 256 257 258 260 261 264 266 267
281 273 259 257 256 252 248 247 247 249 248 247 246 245 245 246 244 245 245 244 245 243 241 241 242 241 241 241 243 245 247 248 249 250 252 255 255 257 258 260 261 263 265 267
281 274 264 261 257 253 250 248 249 252 253 251 250 248 250 248 246 246 248 246 243 244 243 241 241 240 240 241 241 243 245 247 249 250 250 252 255 256 257 259 260 261 264 266
285 277 267 265 265 262 250 245 249 253 251 253 253 248 248 247 247 245 246 247 245 242 241 241 241 240 240 239 239 241 244 246 247 248 251 252 253 255 257 258 259 261 263 265
290 280 272 269 270 269 267 256 249 250 251 249 250 252 247 247 245 242 239 242 243 241 241 241 239 239 239 239 240 241 242 244 246 249 251 252 253 255 257 258 259 261 263 265
289 283 278 274 272 271 271 264 256 251 251 252 251 250 250 248 243 242 240 239 241 242 239 238 240 239 239 238 238 239 241 242 244 247 249 250 252 254 256 258 259 261 263 265
292 282 283 282 277 271 265 261 258 256 252 250 250 250 251 250 247 244 241 240 240 240 240 239 239 239 239 238 238 237 239 241 242 244 246 247 250 252 254 256 258 260 262 264
294 286 284 278 273 268 265 261 256 256 255 250 249 246 245 246 247 246 245 241 239 240 240 238 238 238 238 238 236 236 236 237 239 241 243 245 248 250 252 254 256 259 262 264
295 291 287 277 273 270 267 263 259 256 258 260 257 257 253 248 248 246 247 246 242 237 236 236 236 236 236 236 235 234 233 234 237 239 241 244 247 250 252 253 254 256 258 260
293 288 286 282 274 270 272 270 265 264 262 261 259 257 259 259 253 250 246 244 242 238 234 232 233 234 234 236 236 235 235 235 235 238 240 242 245 248 249 251 254 261 261 259
290 283 280 279 273 266 265 267 266 260 253 244 247 254 258 266 263 261 247 239 236 238 236 233 233 235 234 231 231 226 228 230 232 235 237 242 243 245 246 248 243 233 252 256
287 280 276 273 272 263 263 264 260 247 243 231 234 245 260 270 270 263 249 233 231 234 232 229 226 224 220 216 216 214 214 218 224 230 231 249 235 235 239 243 245 244 251 261
281 276 272 270 266 263 256 257 255 238 244 228 232 242 251 262 280 283 233 236 229 222 216 217 217 214 211 211 214 214 209 204 214 209 229 234 241 242 241 240 243 247 252 257
277 271 269 267 264 264 254 244 254 237 239 230 226 235 249 258 269 262 220 236 228 211 209 206 208 208 206 209 207 197 200 205 209 212 216 228 229 236 238 241 242 245 246 252
273 268 262 262 261 261 258 244 243 236 243 235 233 231 234 242 251 243 219 199 203 200 194 198 200 200 200 201 203 205 198 204 217 223 229 233 233 227 237 245 251 251 254 258
269 267 263 260 259 257 255 245 238 238 242 244 235 233 230 230 232 232 221 199 194 187 186 185 183 185 190 190 194 198 206 216 219 219 221 225 231 243 240 240 246 251 255 261
263 265 262 260 258 257 255 246 243 240 240 243 245 238 232 230 221 222 223 220 209 200 198 198 197 198 198 199 203 208 211 216 222 228 235 235 241 243 247 249 255 259 260 262
259 261 259 256 254 254 253 250 245 244 242 239 240 244 246 236 228 222 221 219 216 213 211 216 222 224 218 212 213 215 219 223 226 232 237 240 242 246 250 254 258 264 264 267
Height
10339 10348 10358 10374 10384 10392 10401 10423 10430 10448 10449 10498 10518 10531 10547 10559 10573 10585 10596 10598 10602 10607 10611 10618 10624 10632 10641 10653 10664 10669 10671 10671 10676 10679 10682 10687 10691 10695 10698 10700 10701 10703 10703 10703
10322 10327 10333 10341 10350 10359 10372 10398 10400 10416 10422 10449 10483 10493 10513 10528 10540 10551 10556 10566 10574 10581 10588 10596 10601 10606 10614 10624 10636 10646 10649 10648 10651 10657 10660 10664 10670 10676 10679 10681 10684 10685 10685 10686
10307 10303 10310 10318 10341 10341 10349 10362 10376 10390 10407 10421 10442 10464 10479 10489 10500 10518 10527 10538 10546 10558 10561 10564 10571 10582 10591 10599 10609 10616 10624 10626 10628 10632 10635 10640 10646 10652 10656 10661 10664 10664 10665 10666
10292 10283 10291 10315 10305 10319 10325 10335 10347 10357 10368 10383 10401 10424 10435 10450 10471 10478 10489 10502 10512 10515 10527 10541 10550 10555 10565 10571 10581 10589 10599 10604 10605 10607 10611 10615 10619 10625 10632 10638 10640 10640 10642 10644
10271 10267 10282 10296 10299 10292 10294 10311 10310 10326 10344 10355 10366 10388 10397 10414 10414 10435 10450 10466 10474 10477 10494 10507 10521 10528 10534 10544 10553 10567 10575 10579 10578 10581 10586 10591 10595 10600 10610 10616 10618 10619 10621 10624
10248 10250 10255 10282 10271 10259 10267 10286 10299 10298 10304 10310 10324 10341 10365 10363 10390 10413 10421 10434 10440 10448 10463 10479 10489 10498 10509 10520 10528 10541 10544 10550 10554 10557 10561 10565 10570 10579 10586 10589 10594 10596 10598 10601
10227 10235 10248 10248 10239 10237 10251 10281 10261 10254 10271 10292 10301 10313 10333 10345 10360 10373 10388 10407 10410 10417 10436 10445 10455 10465 10478 10493 10505 10505 10513 10519 10530 10535 10537 10540 10545 10557 10563 10567 10568 10571 10575 10578
10212 10221 10231 10226 10214 10212 10221 10245 10242 10235 10249 10260 10271 10286 10302 10320 10326 10338 10352 10365 10377 10386 10405 10413 10423 10436 10449 10466 10470 10476 10485 10492 10502 10510 10512 10515 10524 10530 10538 10545 10544 10546 10549 10552
10200 10206 10210 10203 10197 10198 10206 10217 10209 10214 10218 10227 10241 10254 10266 10288 10292 10297 10310 10320 10335 10356 10369 10376 10384 10402 10418 10427 10435 10446 10455 10463 10468 10477 10486 10491 10499 10505 10509 10518 10521 10521 10523 10527
10191 10185 10188 10178 10185 10187 10187 10197 10195 10194 10203 10203 10218 10231 10240 10251 10267 10269 10279 10292 10309 10326 10341 10347 10352 10371 10385 10393 10401 10414 10428 10432 10438 10446 10455 10460 10470 10479 10485 10492 10497 10498 10498 10499
10170 10163 10167 10160 10160 10167 10174 10176 10176 10175 10184 10191 10195 10210 10214 10225 10240 10244 10251 10266 10276 10292 10310 10323 10321 10341 10348 10358 10369 10382 10390 10399 10409 10417 10425 10428 10437 10447 10457 10464 10468 10472 10473 10474
10154 10153 10151 10143 10139 10145 10153 10158 10159 10162 10169 10174 10178 10191 10192 10205 10217 10224 10224 10238 10254 10267 10272 10282 10286 10305 10314 10327 10340 10346 10357 10366 10378 10386 10395 10401 10406 10417 10427 10436 10440 10445 10447 10448
10140 10139 10132 10128 10122 10130 10138 10141 10142 10145 10151 10154 10154 10168 10171 10179 10191 10200 10203 10209 10223 10231 10235 10245 10259 10273 10281 10292 10308 10318 10330 10340 10346 10353 10364 10375 10382 10386 10396 10404 10410 10415 10419 10424
10126 10121 10118 10114 10111 10118 10123 10128 10128 10128 10131 10136 10138 10144 10151 10158 10164 10171 10179 10180 10185 10200 10210 10216 10229 10244 10248 10261 10277 10290 10303 10316 10322 10327 10337 10344 10353 10361 10366 10374 10381 10384 10388 10391
10114 10108 10103 10101 10102 10104 10109 10112 10115 10116 10118 10120 10123 10128 10133 10137 10143 10147 10153 10158 10164 10174 10184 10191 10203 10216 10217 10233 10246 10261 10276 10289 10296 10304 10309 10318 10323 10332 10342 10346 10354 10356 10361 10363
10103 10097 10093 10090 10090 10093 10095 10100 10102 10104 10105 10108 10110 10116 10119 10122 10126 10129 10133 10140 10149 10157 10162 10171 10181 10186 10193 10210 10223 10238 10249 10261 10268 10276 10286 10290 10296 10307 10316 10321 10325 10330 10334 10336
10092 10088 10085 10083 10080 10081 10085 10088 10092 10093 10094 10096 10101 10105 10107 10107 10109 10112 10115 10124 10132 10138 10143 10151 10157 10163 10173 10186 10199 10212 10223 10233 10241 10252 10262 10267 10271 10282 10290 10295 10301 10308 10311 10315
10083 10079 10077 10075 10073 10072 10075 10079 10081 10082 10084 10087 10088 10090 10092 10094 10095 10100 10105 10109 10114 10119 10124 10129 10136 10143 10152 10160 10174 10185 10197 10208 10219 10229 10236 10245 10252 10261 10270 10277 10280 10284 10289 10290
10074 10072 10068 10068 10067 10066 10066 10069 10072 10075 10077 10077 10079 10081 10081 10082 10086 10089 10091 10093 10097 10100 10103 10109 10116 10126 10136 10148 10162 10174 10183 10193 10201 10208 10217 10225 10234 10242 10248 10252 10263 10264 10263 10267
10066 10064 10061 10061 10060 10060 10061 10062 10066 10067 10070 10072 10073 10073 10073 10073 10078 10080 10081 10082 10082 10084 10090 10097 10105 10113 10124 10137 10150 10159 10167 10177 10185 10191 10202 10209 10217 10222 10227 10229 10245 10247 10236 10239
10057 10056 10054 10053 10053 10055 10056 10058 10060 10062 10064 10065 10067 10067 10068 10067 10071 10073 10071 10072 10072 10074 10079 10085 10092 10100 10109 10121 10130 10137 10148 10155 10167 10181 10191 10198 10200 10200 10203 10208 10213 10216 10221 10223
10048 10047 10046 10046 10047 10048 10049 10052 10054 10056 10059 10060 10061 10062 10064 10064 10065 10068 10067 10066 10068 10071 10073 10078 10084 10091 10099 10107 10117 10124 10132 10142 10155 10163 10169 10177 10181 10184 10187 10192 10196 10198 10202 10204
10038 10038 10038 10037 10038 10040 10042 10045 10048 10050 10054 10054 10056 10059 10059 10060 10062 10064 10064 10064 10064 10068 10071 10075 10080 10087 10096 10102 10110 10118 10127 10135 10143 10148 10154 10159 10163 10167 10171 10175 10179 10179 10182 10181
10028 10029 10029 10030 10030 10031 10033 10036 10040 10045 10048 10049 10050 10053 10055 10058 10058 10061 10062 10063 10065 10067 10070 10075 10080 10086 10093 10098 10105 10111 10115 10124 10130 10135 10139 10143 10147 10152 10159 10159 10159 10159 10160 10159
10019 10018 10019 10020 10021 10023 10025 10026 10030 10035 10040 10042 10043 10046 10050 10053 10056 10057 10058 10060 10064 10067 10069 10074 10078 10084 10090 10095 10099 10103 10109 10114 10118 10120 10124 10128 10133 10133 10137 10138 10138 10137 10137 10138
10010 10010 10010 10010 10011 10012 10014 10017 10020 10024 10029 10034 10035 10039 10043 10045 10049 10053 10055 10057 10058 10061 10063 10067 10070 10074 10078 10082 10086 10089 10094 10099 10104 10106 10110 10113 10115 10116 10116 10117 10118 10120 10118 10117
10000 10000 10000 10000 10001 10002 10003 10006 10009 10012 10016 10021 10027 10028 10032 10037 10039 10043 10047 10050 10053 10055 10056 10059 10063 10066 10068 10071 10076 10080 10083 10085 10088 10091 10094 10096 10097 10097 10098 10098 10098 10097 10096 10094